User: anonymous   Login
Location: The D'Auria's Ocala Star Observatory
(29.0276°N, 82.1742°W)
Time: 20:39:34
(UTC-05:00)
Language:

Abrixas rocket - Orbit

View from above orbital plane
View from above orbital plane
View from above satellite
View from above satellite

Ground track
Ground track

The orbit data is extracted from the following two-line orbital elements,

1 25723U 99022C   14352.85758193  .00021371  00000-0  61926-3 0  8273
2 25723 048.4229 288.3347 0014716 013.2259 041.2926 15.35303230865486
Epoch (UTC): 18 December 2014 20:34:55
Eccentricity: 0.0014716
inclination: 48.4229°
perigee height: 450 km
apogee height: 470 km
right ascension of ascending node: 288.3347°
argument of perigee: 13.2259°
revolutions per day: 15.35303230
mean anomaly at epoch: 41.2926°
orbit number at epoch: 86548

The dashed part of the orbit path shows where the satellite is in the earth's shadow,  

DLR